Location: Góry Miechowskie
(50.3599°N, 20.1803°E)
Time: 02:15:41
(UTC+00:00)

Transit 2A Rocket - Pass Details

Date: 16 September 2024
Orbit: 582 x 908 km, 66.7° (Epoch: 10 October)

Event Time Altitude Azimuth Distance (km) Brightness Sun altitude
Exits shadow 00:35:04 24° 313° (NW) 1,799 6.9 -31.1°
Maximum altitude 00:36:21 26° 332° (NNW) 1,728 7.0 -31.0°
Drops below altitude 10° 00:41:19 10° 28° (NNE) 2,583 8.6 -30.5°
Sets 00:44:16 0° 41° (NE) 3,499 9.6 -30.2°
